Total_Precipitation_Accumulation
3.34 3.47 3.46 3.47 3.23 3.18 3.15 3.05 2.90 2.97 2.87 2.62 2.31 2.25 2.29 2.24 2.36 2.62 2.74 2.94 2.97 3.32 3.86 4.17 4.17 4.17 4.39 4.50 4.25 4.05 3.87 3.73 3.56 3.15 2.81 2.64 2.52 2.46 2.26 2.17 2.14 2.08 2.13
3.62 3.72 3.69 3.68 3.58 3.45 3.48 3.31 3.11 3.28 3.19 3.07 2.83 2.69 2.58 2.62 2.61 2.69 2.89 3.09 3.03 3.04 3.42 3.84 4.09 4.31 4.62 4.71 4.52 4.07 3.82 3.83 3.93 3.69 3.32 3.01 2.74 2.64 2.53 2.40 2.25 2.12 2.08
3.63 3.82 3.98 3.90 3.91 3.79 3.76 3.70 3.65 3.74 3.44 3.25 3.06 2.92 2.89 2.99 2.93 2.84 3.01 3.16 3.08 3.17 3.23 3.31 3.52 3.80 4.23 4.55 4.64 4.45 4.07 3.85 3.90 3.93 3.76 3.43 3.08 2.89 2.76 2.63 2.55 2.46 2.35
3.63 4.00 4.12 4.14 4.24 4.15 4.22 4.28 4.18 4.07 3.94 3.66 3.43 3.08 2.95 3.09 3.08 3.09 3.15 3.17 3.31 3.25 3.26 3.14 3.20 3.29 3.64 4.16 4.38 4.62 4.61 4.43 4.15 3.94 3.85 3.65 3.43 3.20 2.98 2.75 2.66 2.65 2.58
4.17 4.36 4.45 4.53 4.61 4.68 4.72 4.49 4.68 4.45 4.35 4.14 3.69 3.42 3.12 2.99 2.98 2.91 3.04 2.96 3.08 3.19 3.31 3.25 3.22 3.21 3.42 4.00 4.31 4.63 4.79 4.80 4.67 4.29 4.02 3.81 3.72 3.55 3.30 3.08 2.86 2.70 2.65
4.89 5.06 4.96 5.04 5.11 5.21 5.08 5.06 5.18 4.95 4.58 4.51 4.04 3.80 3.45 3.09 3.03 3.02 3.00 3.11 3.01 2.83 3.07 3.25 3.38 3.18 3.40 3.65 3.97 4.41 4.64 4.84 4.85 4.61 4.46 4.32 4.07 3.80 3.42 3.09 2.86 2.73 2.66
5.87 5.96 5.67 5.73 5.67 5.55 5.32 5.30 5.24 5.00 4.68 4.64 4.52 4.07 3.38 2.95 2.88 2.77 2.75 2.98 2.94 2.86 2.99 3.13 3.19 3.07 2.94 3.09 3.25 3.69 4.24 4.69 5.02 4.91 4.70 4.48 4.14 3.89 3.62 3.31 3.05 2.88 2.74
6.74 6.80 6.79 6.54 6.37 6.14 5.65 5.29 5.16 4.91 4.53 4.66 4.69 4.67 3.92 3.38 2.80 2.30 2.41 2.45 2.50 2.76 2.72 2.70 2.88 3.01 2.86 2.87 2.68 2.90 3.28 3.83 4.47 4.80 4.79 4.52 4.25 4.04 3.84 3.64 3.43 3.24 3.01
6.74 7.00 7.09 6.87 6.52 5.97 5.40 5.29 5.27 5.08 4.79 4.70 4.60 4.84 4.25 3.66 3.13 2.54 2.23 2.16 2.29 2.42 2.46 2.50 2.52 2.62 2.59 2.69 2.64 2.65 2.81 3.06 3.67 4.24 4.42 4.16 3.96 3.83 3.79 3.70 3.64 3.51 3.36
6.52 6.48 6.41 6.08 5.73 5.36 5.06 4.92 5.02 4.91 4.87 4.61 4.51 4.18 3.89 3.58 3.35 2.88 2.36 2.14 2.24 2.30 2.28 2.22 2.22 2.45 2.55 2.62 2.67 2.58 2.48 2.60 3.04 3.54 3.84 3.85 3.72 3.63 3.66 3.63 3.59 3.63 3.66
5.73 5.30 5.01 4.86 4.82 4.67 4.49 4.37 4.43 4.33 4.09 3.96 3.95 3.91 3.84 3.56 3.20 2.98 2.67 2.43 2.39 2.19 2.16 2.25 2.32 2.44 2.61 2.66 2.70 2.65 2.53 2.33 2.47 2.77 3.08 3.28 3.46 3.51 3.57 3.74 3.79 3.80 3.81
4.88 4.34 4.10 4.00 3.91 3.76 3.58 3.50 3.52 3.52 3.56 3.60 3.67 3.67 3.63 3.56 3.31 3.30 3.08 2.78 2.63 2.42 2.32 2.32 2.37 2.51 2.71 2.82 2.74 2.96 2.58 2.31 2.27 2.40 2.57 2.72 2.96 3.10 3.21 3.38 3.62 3.75 3.87
4.38 3.92 3.52 3.35 3.08 2.92 2.85 2.93 2.95 2.91 3.03 3.13 3.23 3.34 3.36 3.26 3.15 3.23 3.34 3.06 2.77 2.56 2.50 2.40 2.38 2.50 2.55 2.80 3.05 3.15 2.68 2.43 2.25 2.18 2.25 2.36 2.51 2.64 2.70 2.75 3.01 3.28 3.52
3.78 3.50 3.11 2.77 2.53 2.39 2.31 2.50 2.55 2.54 2.63 2.74 2.80 3.06 3.03 2.92 3.02 3.11 3.26 3.39 3.28 2.89 2.60 2.43 2.38 2.42 2.44 2.52 2.81 2.94 2.54 2.49 2.22 2.09 2.07 2.17 2.27 2.39 2.46 2.48 2.68 2.88 3.00
2.93 2.79 2.60 2.43 2.29 2.23 2.23 2.32 2.32 2.36 2.50 2.55 2.58 2.73 2.84 2.81 2.87 2.89 3.00 3.16 3.29 3.09 2.76 2.51 2.41 2.38 2.41 2.47 2.69 2.31 2.25 2.44 2.23 2.08 1.97 1.94 1.94 2.06 2.16 2.17 2.16 2.23 2.31
2.27 2.27 2.21 2.23 2.17 2.10 2.15 2.25 2.12 2.14 2.25 2.26 2.27 2.38 2.47 2.50 2.64 2.68 2.77 2.89 2.99 2.97 2.80 2.46 2.40 2.38 2.32 2.14 2.36 2.07 2.12 2.30 2.11 1.98 1.88 1.86 1.81 1.83 1.90 1.96 1.96 1.92 1.93
1.94 1.94 1.97 2.00 2.01 2.00 2.04 2.03 1.87 1.90 1.97 2.13 2.23 2.29 2.33 2.37 2.48 2.45 2.47 2.51 2.62 2.81 2.91 2.70 2.51 2.45 2.43 2.33 2.18 1.97 1.86 1.86 1.80 1.90 1.86 1.83 1.74 1.71 1.75 1.76 1.72 1.68 1.65
1.80 1.83 1.85 1.82 1.85 1.97 2.05 1.97 1.81 1.76 1.90 2.04 2.17 2.32 2.29 2.22 2.26 2.28 2.35 2.34 2.35 2.53 2.70 2.64 2.49 2.36 2.35 2.32 2.25 2.15 1.80 1.63 1.60 1.66 1.60 1.55 1.55 1.56 1.51 1.54 1.53 1.50 1.47
1.80 1.79 1.76 1.75 1.80 1.86 1.89 1.83 1.73 1.69 1.76 1.85 1.96 2.02 2.06 2.08 2.00 1.99 2.04 2.11 2.09 2.13 2.38 2.42 2.32 2.25 2.18 2.14 2.21 2.15 1.93 1.93 1.55 1.49 1.42 1.35 1.32 1.31 1.29 1.27 1.30 1.36 1.36
1.74 1.78 1.78 1.76 1.72 1.65 1.54 1.47 1.47 1.52 1.57 1.58 1.63 1.65 1.73 1.86 1.88 1.88 1.82 1.91 1.98 2.13 2.25 2.30 2.19 2.12 2.13 2.01 2.10 2.09 2.04 1.91 1.69 1.41 1.41 1.27 1.20 1.13 1.10 1.11 1.10 1.12 1.16
1.51 1.59 1.66 1.59 1.46 1.32 1.14 1.16 1.25 1.27 1.39 1.41 1.43 1.35 1.35 1.58 1.73 1.68 1.52 1.69 1.91 2.09 2.16 2.18 2.07 1.96 1.89 1.99 1.96 1.89 1.94 1.94 1.83 1.64 1.63 1.42 1.30 1.21 1.19 1.17 1.11 1.08 1.10
1.67 1.60 1.58 1.50 1.36 1.08 1.09 1.06 1.17 1.32 1.43 1.41 1.44 1.43 1.32 1.36 1.45 1.40 1.30 1.44 1.70 1.80 1.92 2.08 2.06 1.96 1.87 1.89 1.93 1.93 2.00 2.08 2.04 1.76 1.80 1.63 1.48 1.47 1.34 1.23 1.19 1.11 1.08
1.78 1.71 1.57 1.52 1.45 1.36 1.23 1.04 1.06 1.22 1.34 1.36 1.37 1.41 1.23 1.15 1.34 1.36 1.36 1.33 1.39 1.41 1.53 1.87 2.08 1.95 1.92 1.98 2.12 2.07 2.17 2.18 2.02 1.90 2.05 1.96 1.66 1.51 1.23 1.13 1.21 1.08 1.07
1.79 1.73 1.64 1.53 1.42 1.19 1.04 0.91 0.93 1.05 1.28 1.32 1.30 1.35 1.41 1.32 1.25 1.31 1.31 1.31 1.36 1.39 1.35 1.41 1.68 1.78 1.83 1.98 2.14 2.21 2.33 2.26 2.12 2.03 2.15 2.18 1.80 1.64 1.35 1.33 1.26 1.08 1.04
1.74 1.65 1.56 1.49 1.41 1.23 1.00 0.86 0.91 1.05 1.26 1.28 1.25 1.24 1.33 1.34 1.33 1.29 1.32 1.44 1.49 1.48 1.27 1.28 1.35 1.48 1.58 1.73 1.89 2.03 2.30 2.49 2.30 2.01 2.02 2.20 1.92 1.78 1.61 1.48 1.30 1.19 1.07
1.65 1.56 1.43 1.40 1.39 1.35 1.21 1.01 0.98 1.04 1.20 1.25 1.33 1.31 1.26 1.27 1.30 1.25 1.36 1.54 1.55 1.51 1.39 1.35 1.47 1.56 1.57 1.68 1.78 1.93 2.24 2.37 2.22 2.10 1.87 2.01 1.95 2.04 1.99 1.61 1.42 1.34 1.24